Location: Rochester
(43.1610°N, 77.6109°W)
Time: 04:26:36
(UTC-04:00)

Tiangong 2 - Visible Passes

Search period start: 21 May 2019 00:00
Search period end: 31 May 2019 00:00
Orbit: 379 x 387 km, 42.8° (Epoch: 21 May)

Date Brightness Start Highest point End Pass type
(mag) Time Alt. Az. Time Alt. Az. Time Alt. Az.
21 May 1.0 22:08:10 10° WSW 22:11:15 64° SSE 22:12:42 28° E visible
21 May 4.1 23:44:47 10° W 23:44:55 11° W 23:44:55 11° W visible
22 May 1.4 21:08:17 10° SW 21:11:18 45° SSE 21:14:19 10° E visible
22 May 0.9 22:44:46 10° W 22:47:55 86° S 22:47:55 86° S visible
23 May 0.9 21:44:45 10° W 21:47:53 79° S 21:50:44 12° E visible
23 May 2.9 23:21:26 10° W 23:22:55 25° W 23:22:55 25° W visible
24 May 0.9 22:21:24 10° W 22:24:32 83° S 22:25:36 38° E visible
25 May 1.0 21:21:22 10° W 21:24:30 86° S 21:27:38 10° E visible
25 May 1.9 22:58:05 10° W 23:00:23 40° WSW 23:00:23 40° WSW visible
26 May 1.0 21:58:01 10° W 22:01:08 71° SSW 22:02:57 22° ESE visible
26 May 4.0 23:34:58 10° W 23:35:07 11° W 23:35:07 11° W visible
27 May 1.8 22:34:43 10° W 22:37:38 36° SSW 22:37:38 36° SSW visible
28 May 1.3 21:34:36 10° W 21:37:40 54° SSW 21:40:10 14° ESE visible
28 May 3.8 23:12:02 10° WSW 23:12:20 11° WSW 23:12:20 11° WSW visible
29 May 2.5 22:11:28 10° W 22:14:05 24° SSW 22:14:52 22° S visible
